Weather History for KEGE - October, 2011

Change the Weather History Date:

Saturday, October 29, 2011

  Actual Average Record
Temperature  
Mean Temperature 37 °F -  
Max Temperature 51 °F 55 °F 79 °F (1950)
Min Temperature 23 °F 22 °F 10 °F (1976)
Degree Days  
Heating Degree Days 28    
Moisture  
Dew Point 23 °F    
Average Humidity 71    
Maximum Humidity 100    
Minimum Humidity 22    
Precipitation  
Precipitation 0.00 in - - ()
Sea Level Pressure  
Sea Level Pressure 30.27 in    
Wind  
Wind Speed 3 mph (SSE)    
Max Wind Speed 20 mph    
Max Gust Speed 24 mph    
Visibility 10 miles    
Events      
Averages and records for this station are not official NWS values.
T = Trace of Precipitation, MM = Missing Value Source: NWS Daily Summary

Daily Weather History Graph

Daily Weather History Graph

Search for Another Location

Airport or City:

Trip Planner

Search our weather history database for the weather conditions in past years. The results will help you decide how hot, cold, wet, or windy it might be!

Date:

Astronomy

Oct. 29, 2011 Rise Set
Actual Time 7:32 AM MDT 6:09 PM MDT
Civil Twilight 7:04 AM MDT 6:37 PM MDT
Nautical Twilight 6:33 AM MDT 7:09 PM MDT
Astronomical Twilight 6:01 AM MDT 7:40 PM MDT
Moon 10:56 AM MDT (10/29) 8:36 PM MDT (10/29)
Length of Visible Light 11h 32m
Length of Day
10h 37m
Waxing Crescent, 12% of the Moon is Illuminated
Oct 29
Waxing Crescent
Nov 2
First Quarter
Nov 10
Full
Nov 18
Last Quarter
Nov 24
New

Hourly Weather History & Observations

Time (MDT) Temp. Windchill Dew Point Humidity Pressure Visibility Wind Dir Wind Speed Gust Speed Precip Events Conditions
12:15 AM 28.4 °F 24.6 °F 26.6 °F 93% 30.31 in 10.0 mi ESE 3.5 mph - N/A   Clear
12:35 AM 28.4 °F 23.3 °F 26.6 °F 93% 30.31 in 10.0 mi SE 4.6 mph - N/A   Clear
1:15 AM 28.4 °F - 26.6 °F 93% 30.31 in 10.0 mi Calm Calm - N/A   Clear
1:35 AM 26.6 °F - 24.8 °F 93% 30.31 in 10.0 mi Calm Calm - N/A   Clear
2:15 AM 26.6 °F - 24.8 °F 93% 30.30 in 10.0 mi Calm Calm - N/A   Clear
2:55 AM 26.6 °F - 24.8 °F 93% 30.29 in 10.0 mi Calm Calm - N/A   Clear
3:15 AM 24.8 °F - 24.8 °F 100% 30.30 in 10.0 mi Calm Calm - N/A   Clear
3:55 AM 24.8 °F - 24.8 °F 100% 30.29 in 10.0 mi Calm Calm - N/A   Clear
4:15 AM 24.8 °F - 23.0 °F 93% 30.29 in 10.0 mi Calm Calm - N/A   Clear
4:35 AM 24.8 °F - 23.0 °F 93% 30.29 in 10.0 mi Calm Calm - N/A   Clear
4:55 AM 24.8 °F - 23.0 °F 93% 30.29 in 10.0 mi Calm Calm - N/A   Clear
5:35 AM 23.0 °F - 21.2 °F 93% 30.30 in 10.0 mi Calm Calm - N/A   Clear
6:35 AM 23.0 °F - 21.2 °F 93% 30.31 in 10.0 mi Calm Calm - N/A   Clear
6:50 AM 23.0 °F - 23.0 °F 100% 30.32 in 10.0 mi Calm Calm - N/A   Scattered Clouds
7:50 AM 23.0 °F - 21.2 °F 93% 30.31 in 10.0 mi Calm Calm - N/A   Scattered Clouds
8:55 AM 28.4 °F 24.6 °F 26.6 °F 93% 30.32 in 10.0 mi WSW 3.5 mph - N/A   Clear
9:50 AM 30.2 °F - 26.6 °F 86% 30.31 in 10.0 mi Calm Calm - N/A   Partly Cloudy
10:50 AM 35.6 °F - 26.6 °F 70% 30.29 in 10.0 mi Calm Calm - N/A   Partly Cloudy
11:50 AM 39.2 °F - 24.8 °F 56% 30.25 in 10.0 mi Calm Calm - N/A   Scattered Clouds
12:50 PM 46.4 °F - 21.2 °F 37% 30.22 in 10.0 mi Calm Calm - N/A   Scattered Clouds
1:50 PM 51.8 °F - 17.6 °F 26% 30.19 in 10.0 mi SW 11.5 mph - N/A   Mostly Cloudy
2:50 PM 51.8 °F - 14.0 °F 22% 30.18 in 10.0 mi SW 19.6 mph - N/A   Overcast
3:50 PM 50.0 °F - 15.8 °F 26% 30.19 in 10.0 mi SW 18.4 mph 24.2 mph N/A   Mostly Cloudy
4:50 PM 48.2 °F - 17.6 °F 30% 30.20 in 10.0 mi SSW 9.2 mph - N/A   Mostly Cloudy
5:50 PM 46.4 °F 41.5 °F 17.6 °F 32% 30.21 in 10.0 mi West 10.4 mph 19.6 mph N/A   Scattered Clouds
6:50 PM 44.6 °F 40.7 °F 19.4 °F 37% 30.24 in 10.0 mi WNW 6.9 mph - N/A   Scattered Clouds
7:15 PM 42.8 °F 39.3 °F 19.4 °F 39% 30.23 in 10.0 mi West 5.8 mph - N/A   Partly Cloudy
7:35 PM 41.0 °F 38.0 °F 19.4 °F 42% 30.24 in 10.0 mi SSE 4.6 mph - N/A   Clear
7:55 PM 37.4 °F 32.1 °F 23.0 °F 56% 30.24 in 10.0 mi East 6.9 mph - N/A   Clear
8:15 PM 35.6 °F 29.9 °F 24.8 °F 65% 30.24 in 10.0 mi East 6.9 mph - N/A   Clear
8:35 PM 35.6 °F 28.6 °F 24.8 °F 65% 30.24 in 10.0 mi East 9.2 mph - N/A   Clear
8:55 PM 35.6 °F 29.9 °F 24.8 °F 65% 30.25 in 10.0 mi East 6.9 mph - N/A   Clear
9:55 PM 33.8 °F 28.6 °F 24.8 °F 70% 30.27 in 10.0 mi ESE 5.8 mph - N/A   Clear
10:35 PM 33.8 °F - 24.8 °F 70% 30.28 in 10.0 mi Calm Calm - N/A   Clear
10:55 PM 32.0 °F 28.7 °F 26.6 °F 80% 30.28 in 10.0 mi ESE 3.5 mph - N/A   Clear
11:15 PM 32.0 °F 28.7 °F 26.6 °F 80% 30.29 in 10.0 mi ESE 3.5 mph - N/A   Clear
11:35 PM 32.0 °F - 26.6 °F 80% 30.29 in 10.0 mi Calm Calm - N/A   Clear